Location: Grand Lay
(47.3253°N, 0.9468°E)
Time: 22:42:59
(UTC+00:00)

ATLAS 2AS CENTAUR R/B - Visible Passes

Search period start: 18 April 2026 00:00
Search period end: 28 April 2026 00:00
Orbit: 1052 x 1159 km, 63.7° (Epoch: 18 April)

Date Brightness Start Highest point End Pass type
(mag) Time Alt. Az. Time Alt. Az. Time Alt. Az.
18 Apr 2.8 01:18:47 56° W 01:19:55 65° NW 01:26:43 10° NE visible
18 Apr 4.3 03:06:31 10° WNW 03:12:07 25° NNW 03:17:38 10° NNE visible
18 Apr 4.5 22:47:23 17° E 22:47:23 17° E 22:49:36 10° ENE visible
19 Apr 2.5 00:34:46 90° SW 00:34:47 90° WSW 00:41:40 10° NE visible
19 Apr 4.0 02:22:09 17° W 02:26:31 31° NNW 02:32:29 10° NNE visible
19 Apr 4.7 04:14:49 10° NW 04:19:40 20° N 04:24:28 10° NE visible
19 Apr 2.9 23:50:42 58° E 23:50:42 58° E 23:56:32 10° NE visible
20 Apr 3.6 01:38:05 27° W 01:41:02 40° NW 01:47:25 10° NNE visible
20 Apr 4.7 03:28:52 10° WNW 03:33:52 21° N 03:38:50 10° NE visible
20 Apr 3.5 23:06:34 36° E 23:06:34 36° E 23:11:16 10° NE visible
21 Apr 3.2 00:53:57 43° W 00:55:42 54° NW 01:02:24 10° NE visible
21 Apr 4.5 02:42:48 10° WNW 02:48:08 23° NNW 02:53:26 10° NE visible
21 Apr 4.1 22:22:23 23° E 22:22:23 23° E 22:25:44 10° ENE visible
22 Apr 2.7 00:09:45 68° W 00:10:29 75° NW 00:17:21 10° NE visible
22 Apr 4.3 01:57:08 12° W 02:02:29 28° NNW 02:08:12 10° NNE visible
22 Apr 4.8 03:50:54 10° NW 03:55:45 20° N 04:00:34 10° NE visible
22 Apr 4.5 21:38:07 14° E 21:38:07 14° E 21:39:41 10° ENE visible
22 Apr 2.5 23:25:29 78° ESE 23:25:29 78° ESE 23:32:16 10° NE visible
23 Apr 3.9 01:12:51 19° W 01:16:56 34° NNW 01:23:06 10° NNE visible
23 Apr 4.8 03:05:04 10° NW 03:09:57 20° N 03:14:48 10° NE visible
23 Apr 2.9 22:41:06 51° ESE 22:41:06 51° ESE 22:47:05 10° NE visible
24 Apr 3.5 00:28:27 29° W 00:31:31 45° NW 00:38:03 10° NE visible
24 Apr 4.7 02:19:03 10° WNW 02:24:11 22° NNW 02:29:17 10° NE visible
24 Apr 4.8 04:12:21 10° NW 04:17:35 23° NNE 04:22:47 10° ENE visible
24 Apr 3.4 21:56:37 33° E 21:56:37 33° E 22:01:43 10° NE visible
24 Apr 3.0 23:43:57 42° WSW 23:46:14 62° NW 23:53:01 10° NE visible
25 Apr 4.5 01:32:57 10° WNW 01:38:29 25° NNW 01:43:57 10° NNE visible
25 Apr 4.9 03:26:54 10° NW 03:31:50 20° N 03:36:44 10° NE visible
25 Apr 3.9 21:11:56 22° E 21:11:56 22° E 21:16:01 10° ENE visible
25 Apr 2.6 22:59:15 53° SW 23:01:05 87° NW 23:07:58 10° NE visible
26 Apr 4.2 00:46:54 10° W 00:52:52 30° NNW 00:58:47 10° NNE visible
26 Apr 4.9 02:41:12 10° NW 02:46:03 20° N 02:50:51 10° NE visible
26 Apr 4.3 20:27:00 13° E 20:27:00 13° E 20:29:26 10° ENE visible
26 Apr 2.6 22:14:18 49° S 22:16:05 66° ESE 22:22:51 10° NE visible
27 Apr 3.9 00:01:35 13° W 00:07:23 39° NW 00:13:43 10° NNE visible
27 Apr 4.9 01:55:17 10° NW 02:00:16 21° N 02:05:11 10° NE visible
27 Apr 4.8 03:48:10 10° NNW 03:53:37 25° NNE 03:59:02 10° ENE visible
27 Apr 3.0 21:28:52 33° SSE 21:31:11 44° ESE 21:37:36 10° NE visible
27 Apr 3.4 23:16:07 14° WSW 23:22:02 52° NW 23:28:41 10° NE visible
